Location: Blangy-Tronville
(49.8790°N, 2.4226°E)
Time: 21:43:49
(UTC+00:00)

SJ 16-02 - Pass Details

Date: 18 November 2025
Orbit: 585 x 594 km, 75.0° (Epoch: 10 December)

Event Time Altitude Azimuth Distance (km) Brightness Sun altitude
Rises 16:40:40 0° 146° (SE) 2,825 4.6 -6.3°
Reaches altitude 10° 16:44:16 10° 114° (ESE) 1,930 3.5 -6.8°
Maximum altitude 16:45:48 12° 93° (E) 1,819 3.2 -7.1°
Drops below altitude 10° 16:47:21 10° 72° (ENE) 1,935 3.2 -7.3°
Enters shadow 16:47:44 - 67° (ENE) 1,998 3.3 -7.4°
